AVA166 SLVR-SKBO

Flight info

Callsign AVA166
Flight time 3h 35m
Altitude 24000
Route PAKES1 PAKES A301 TRI/N0457F360 UN420 RCO UL417 PABON UP530 VVC/N0386F240 W17 EGEPI EGEPI3T
Aircraft A320/M-SDE3FGHIRWY/LB1

Departure

Time 2026-05-05 00:36
Airport Viru Viru International Airport (SLVR)

Arrival

Time 2026-05-05 04:11
Airport El Dorado International Airport (SKBO)
Time Latitude Longitude Altitude Speed Heading
2026-05-05 00:02 -17.64776 -63.13945 1229 ft 0 kts 146°
2026-05-05 00:26 -17.64774 -63.13947 1228 ft 2 kts 147°
2026-05-05 00:27 -17.64751 -63.13958 1228 ft 4 kts 179°
2026-05-05 00:27 -17.64731 -63.13949 1228 ft 4 kts 241°
2026-05-05 00:27 -17.64721 -63.13924 1228 ft 4 kts 243°
2026-05-05 00:27 -17.64712 -63.13908 1228 ft 3 kts 161°
2026-05-05 00:28 -17.64711 -63.13908 1228 ft 0 kts 146°
2026-05-05 00:31 -17.64715 -63.13906 1228 ft 4 kts 146°
2026-05-05 00:31 -17.64809 -63.13845 1229 ft 24 kts 152°
2026-05-05 00:32 -17.64872 -63.13738 1229 ft 18 kts 60°
2026-05-05 00:32 -17.64806 -63.13624 1229 ft 16 kts 58°
2026-05-05 00:32 -17.64824 -63.13544 1229 ft 12 kts 146°
2026-05-05 00:32 -17.64915 -63.13480 1229 ft 17 kts 147°
2026-05-05 00:33 -17.65010 -63.13415 1229 ft 16 kts 147°
2026-05-05 00:33 -17.65142 -63.13327 1230 ft 28 kts 147°
2026-05-05 00:33 -17.65308 -63.13217 1230 ft 28 kts 147°
2026-05-05 00:33 -17.65474 -63.13105 1231 ft 28 kts 147°
2026-05-05 00:34 -17.65641 -63.12992 1231 ft 29 kts 147°
2026-05-05 00:34 -17.65800 -63.12884 1232 ft 19 kts 147°
2026-05-05 00:34 -17.65867 -63.12787 1232 ft 16 kts 86°
2026-05-05 00:34 -17.65814 -63.12693 1233 ft 15 kts 44°
2026-05-05 00:35 -17.65734 -63.12699 1233 ft 12 kts 327°
2026-05-05 00:35 -17.65624 -63.12772 1241 ft 40 kts 328°
2026-05-05 00:35 -17.65195 -63.13060 1230 ft 103 kts 327°
2026-05-05 00:35 -17.64441 -63.13561 1230 ft 151 kts 327°
2026-05-05 00:36 -17.63472 -63.14221 1490 ft 171 kts 327°
2026-05-05 00:36 -17.62497 -63.14935 2166 ft 171 kts 324°
2026-05-05 00:36 -17.61499 -63.15648 2768 ft 179 kts 323°
2026-05-05 00:36 -17.60401 -63.16428 3014 ft 203 kts 325°
2026-05-05 00:37 -17.59163 -63.17299 3328 ft 226 kts 326°
2026-05-05 00:37 -17.57844 -63.18279 3909 ft 237 kts 321°
2026-05-05 00:37 -17.56661 -63.19502 4716 ft 241 kts 312°
2026-05-05 00:37 -17.55686 -63.20947 5469 ft 245 kts 304°
2026-05-05 00:38 -17.54800 -63.22486 6242 ft 247 kts 303°
2026-05-05 00:38 -17.53908 -63.24039 6923 ft 251 kts 303°
2026-05-05 00:38 -17.52991 -63.25630 7542 ft 258 kts 303°
2026-05-05 00:38 -17.52052 -63.27256 8153 ft 264 kts 303°
2026-05-05 00:39 -17.51101 -63.28899 8702 ft 270 kts 302°
2026-05-05 00:39 -17.50117 -63.30603 9302 ft 276 kts 302°
2026-05-05 00:39 -17.49115 -63.32339 9901 ft 281 kts 302°
2026-05-05 00:39 -17.48076 -63.34139 10130 ft 299 kts 302°
2026-05-05 00:40 -17.46962 -63.36067 10251 ft 320 kts 302°
2026-05-05 00:40 -17.45781 -63.38109 10564 ft 331 kts 302°
2026-05-05 00:40 -17.44578 -63.40189 11049 ft 337 kts 302°
2026-05-05 00:40 -17.43358 -63.42304 11543 ft 341 kts 302°
2026-05-05 00:41 -17.42121 -63.44447 12065 ft 345 kts 302°
2026-05-05 00:41 -17.40867 -63.46614 12578 ft 349 kts 302°
2026-05-05 00:41 -17.39602 -63.48802 13068 ft 353 kts 302°
2026-05-05 00:41 -17.38322 -63.51016 13560 ft 358 kts 302°
2026-05-05 00:42 -17.37024 -63.53257 14009 ft 362 kts 302°
2026-05-05 00:42 -17.35613 -63.55445 14439 ft 364 kts 310°
2026-05-05 00:42 -17.33811 -63.57312 14875 ft 366 kts 322°
2026-05-05 00:42 -17.31672 -63.58755 15334 ft 368 kts 334°
2026-05-05 00:43 -17.29279 -63.59730 15782 ft 370 kts 342°
2026-05-05 00:43 -17.26817 -63.60565 16238 ft 373 kts 342°
2026-05-05 00:43 -17.24331 -63.61407 16697 ft 376 kts 342°
2026-05-05 00:43 -17.21839 -63.62253 17178 ft 378 kts 342°
2026-05-05 00:44 -17.19325 -63.63112 17640 ft 381 kts 342°
2026-05-05 00:44 -17.16797 -63.63980 18099 ft 384 kts 342°
2026-05-05 00:44 -17.14279 -63.64845 18498 ft 386 kts 342°
2026-05-05 00:44 -17.11715 -63.65725 18888 ft 389 kts 342°
2026-05-05 00:45 -17.09139 -63.66607 19277 ft 391 kts 342°
2026-05-05 00:45 -17.06541 -63.67494 19663 ft 394 kts 342°
2026-05-05 00:45 -17.03925 -63.68387 20042 ft 396 kts 342°
2026-05-05 00:45 -17.01294 -63.69280 20401 ft 399 kts 342°
2026-05-05 00:46 -16.98647 -63.70179 20780 ft 401 kts 342°
2026-05-05 00:46 -16.95984 -63.71086 21130 ft 404 kts 342°
2026-05-05 00:46 -16.93306 -63.72001 21510 ft 406 kts 342°
2026-05-05 00:46 -16.90615 -63.72922 21874 ft 409 kts 342°
2026-05-05 00:47 -16.87900 -63.73853 22226 ft 411 kts 342°
2026-05-05 00:47 -16.85176 -63.74785 22576 ft 414 kts 342°
2026-05-05 00:47 -16.82430 -63.75722 22911 ft 416 kts 342°
2026-05-05 00:47 -16.79667 -63.76663 23255 ft 419 kts 342°
2026-05-05 00:48 -16.76890 -63.77608 23566 ft 421 kts 342°
2026-05-05 00:48 -16.74096 -63.78559 23835 ft 423 kts 342°
2026-05-05 00:48 -16.71297 -63.79508 23919 ft 423 kts 342°
2026-05-05 00:48 -16.68497 -63.80456 23942 ft 423 kts 342°
2026-05-05 00:49 -16.65664 -63.81418 23947 ft 433 kts 342°
2026-05-05 00:49 -16.62762 -63.82406 23942 ft 443 kts 342°
2026-05-05 00:49 -16.59803 -63.83416 23943 ft 452 kts 342°
2026-05-05 00:49 -16.56788 -63.84448 23942 ft 460 kts 342°
2026-05-05 00:50 -16.53721 -63.85496 23942 ft 467 kts 342°
2026-05-05 00:50 -16.50609 -63.86553 23942 ft 474 kts 342°
2026-05-05 00:50 -16.47554 -63.87878 23943 ft 480 kts 332°
2026-05-05 00:50 -16.44666 -63.89667 23942 ft 484 kts 329°
2026-05-05 00:51 -16.41794 -63.91501 23942 ft 485 kts 329°
2026-05-05 00:51 -16.38914 -63.93346 23939 ft 486 kts 329°
2026-05-05 00:51 -16.36069 -63.95170 23939 ft 486 kts 329°
2026-05-05 00:51 -16.33188 -63.97011 23940 ft 486 kts 329°
2026-05-05 00:52 -16.30303 -63.98845 23945 ft 486 kts 329°
2026-05-05 00:52 -16.27411 -64.00676 23939 ft 487 kts 329°
2026-05-05 00:52 -16.24518 -64.02508 23939 ft 487 kts 329°
2026-05-05 00:52 -16.21626 -64.04337 23939 ft 487 kts 329°
2026-05-05 00:53 -16.18735 -64.06166 23937 ft 487 kts 329°
2026-05-05 00:53 -16.15842 -64.07997 23939 ft 487 kts 329°
2026-05-05 00:53 -16.12950 -64.09826 23939 ft 487 kts 329°
2026-05-05 00:53 -16.10060 -64.11655 23942 ft 487 kts 329°
2026-05-05 00:54 -16.07161 -64.13491 23946 ft 487 kts 329°
2026-05-05 00:54 -16.04269 -64.15321 23942 ft 488 kts 329°
2026-05-05 00:54 -16.01368 -64.17154 23943 ft 488 kts 329°
2026-05-05 00:54 -15.98462 -64.18986 23942 ft 489 kts 329°
2026-05-05 00:55 -15.95557 -64.20817 23939 ft 489 kts 329°
2026-05-05 00:55 -15.92652 -64.22648 23939 ft 489 kts 329°
2026-05-05 00:55 -15.89748 -64.24481 23939 ft 489 kts 329°
2026-05-05 00:55 -15.86841 -64.26319 23939 ft 489 kts 329°
2026-05-05 00:56 -15.83941 -64.28155 23942 ft 489 kts 329°
2026-05-05 00:56 -15.81037 -64.29991 23943 ft 489 kts 329°
2026-05-05 00:56 -15.78133 -64.31821 23942 ft 489 kts 329°
2026-05-05 00:56 -15.75218 -64.33657 23943 ft 489 kts 329°
2026-05-05 00:57 -15.72314 -64.35486 23941 ft 489 kts 329°
2026-05-05 00:57 -15.69403 -64.37319 23942 ft 489 kts 329°
2026-05-05 00:57 -15.66494 -64.39153 23942 ft 490 kts 329°
2026-05-05 00:57 -15.63582 -64.40989 23942 ft 490 kts 329°
2026-05-05 00:58 -15.60669 -64.42825 23942 ft 490 kts 329°
2026-05-05 00:58 -15.57749 -64.44663 23942 ft 490 kts 329°
2026-05-05 00:58 -15.54837 -64.46495 23942 ft 490 kts 329°
2026-05-05 00:58 -15.51920 -64.48329 23942 ft 490 kts 329°
2026-05-05 00:59 -15.49002 -64.50167 23942 ft 490 kts 329°
2026-05-05 00:59 -15.46093 -64.52010 23944 ft 490 kts 329°
2026-05-05 00:59 -15.43187 -64.53857 23942 ft 490 kts 329°
2026-05-05 00:59 -15.40283 -64.55701 23942 ft 490 kts 329°
2026-05-05 01:00 -15.37373 -64.57549 23944 ft 490 kts 329°
2026-05-05 01:00 -15.34498 -64.59370 23945 ft 490 kts 329°
2026-05-05 01:00 -15.31582 -64.61214 23945 ft 490 kts 329°
2026-05-05 01:00 -15.28669 -64.63053 23945 ft 490 kts 329°
2026-05-05 01:01 -15.25761 -64.64892 23943 ft 490 kts 329°
2026-05-05 01:01 -15.22846 -64.66735 23942 ft 490 kts 329°
2026-05-05 01:01 -15.19931 -64.68580 23942 ft 490 kts 329°
2026-05-05 01:01 -15.17022 -64.70425 23942 ft 490 kts 329°
2026-05-05 01:02 -15.14114 -64.72269 23945 ft 491 kts 329°
2026-05-05 01:02 -15.11204 -64.74108 23944 ft 490 kts 329°
2026-05-05 01:02 -15.08286 -64.75941 23945 ft 491 kts 329°
2026-05-05 01:02 -15.05359 -64.77775 23945 ft 491 kts 329°
2026-05-05 01:03 -15.03428 -64.78986 23942 ft 491 kts 329°
2026-05-05 01:03 -15.00509 -64.80821 23942 ft 491 kts 329°
2026-05-05 01:03 -14.97591 -64.82658 23945 ft 491 kts 329°
2026-05-05 01:03 -14.94676 -64.84497 23945 ft 491 kts 329°
2026-05-05 01:04 -14.91760 -64.86337 23948 ft 491 kts 329°
2026-05-05 01:04 -14.85930 -64.90014 23949 ft 491 kts 330°
2026-05-05 01:04 -14.83016 -64.91850 23948 ft 491 kts 330°
2026-05-05 01:05 -14.80092 -64.93691 23948 ft 491 kts 330°
2026-05-05 01:05 -14.77162 -64.95514 23955 ft 492 kts 330°
2026-05-05 01:05 -14.74226 -64.97298 24403 ft 483 kts 330°
2026-05-05 01:05 -14.71379 -64.99002 25361 ft 464 kts 330°
2026-05-05 01:06 -14.68637 -65.00634 26276 ft 449 kts 330°
2026-05-05 01:06 -14.65939 -65.02240 26785 ft 445 kts 330°
2026-05-05 01:06 -14.63262 -65.03841 27137 ft 445 kts 330°
2026-05-05 01:06 -14.60582 -65.05452 27436 ft 446 kts 330°
2026-05-05 01:07 -14.57905 -65.07066 27717 ft 447 kts 329°
2026-05-05 01:07 -14.55215 -65.08690 27990 ft 448 kts 329°
2026-05-05 01:07 -14.52525 -65.10316 28260 ft 449 kts 329°
2026-05-05 01:07 -14.49818 -65.11952 28525 ft 451 kts 329°
2026-05-05 01:08 -14.47106 -65.13589 28790 ft 452 kts 329°
2026-05-05 01:08 -14.44385 -65.15224 29040 ft 453 kts 329°
2026-05-05 01:08 -14.41654 -65.16862 29285 ft 455 kts 329°
2026-05-05 01:08 -14.38916 -65.18505 29524 ft 456 kts 329°
2026-05-05 01:09 -14.36172 -65.20154 29749 ft 457 kts 329°
2026-05-05 01:09 -14.33410 -65.21816 29986 ft 459 kts 329°
2026-05-05 01:09 -14.30655 -65.23475 30186 ft 460 kts 329°
2026-05-05 01:09 -14.27884 -65.25146 30373 ft 461 kts 329°
2026-05-05 01:10 -14.25112 -65.26817 30554 ft 463 kts 329°
2026-05-05 01:10 -14.22324 -65.28494 30737 ft 464 kts 329°
2026-05-05 01:10 -14.19533 -65.30167 30991 ft 463 kts 329°
2026-05-05 01:10 -14.16780 -65.31814 31228 ft 463 kts 329°
2026-05-05 01:11 -14.13991 -65.33485 31473 ft 463 kts 329°
2026-05-05 01:11 -14.11205 -65.35154 31743 ft 463 kts 329°
2026-05-05 01:11 -14.08428 -65.36818 31999 ft 462 kts 329°
2026-05-05 01:11 -14.05647 -65.38487 32259 ft 462 kts 328°
2026-05-05 01:12 -14.02881 -65.40167 32517 ft 461 kts 328°
2026-05-05 01:12 -14.00126 -65.41857 32778 ft 461 kts 328°
2026-05-05 01:12 -13.97375 -65.43551 33039 ft 461 kts 328°
2026-05-05 01:12 -13.94628 -65.45242 33303 ft 460 kts 328°
2026-05-05 01:13 -13.91871 -65.46932 33571 ft 460 kts 328°
2026-05-05 01:13 -13.89125 -65.48611 33842 ft 459 kts 328°
2026-05-05 01:13 -13.86376 -65.50291 34090 ft 459 kts 328°
2026-05-05 01:13 -13.83631 -65.51965 34334 ft 458 kts 328°
2026-05-05 01:14 -13.80893 -65.53632 34579 ft 457 kts 328°
2026-05-05 01:14 -13.78163 -65.55296 34827 ft 456 kts 328°
2026-05-05 01:14 -13.75441 -65.56958 35069 ft 455 kts 328°
2026-05-05 01:14 -13.72724 -65.58619 35305 ft 453 kts 328°
2026-05-05 01:15 -13.70016 -65.60272 35537 ft 452 kts 328°
2026-05-05 01:15 -13.67309 -65.61922 35769 ft 451 kts 328°
2026-05-05 01:15 -13.64613 -65.63565 35919 ft 451 kts 328°
2026-05-05 01:15 -13.61921 -65.65205 35957 ft 448 kts 328°
2026-05-05 01:16 -13.56577 -65.68457 35953 ft 445 kts 328°
2026-05-05 01:16 -13.51250 -65.71700 35953 ft 445 kts 328°
2026-05-05 01:17 -13.45909 -65.74941 35956 ft 445 kts 328°
2026-05-05 01:17 -13.40572 -65.78182 35956 ft 445 kts 328°
2026-05-05 01:18 -13.35244 -65.81424 35960 ft 445 kts 328°
2026-05-05 01:18 -13.29913 -65.84665 35960 ft 445 kts 328°
2026-05-05 01:19 -13.24615 -65.87888 35964 ft 445 kts 328°
2026-05-05 01:19 -13.19245 -65.91136 35965 ft 445 kts 328°
2026-05-05 01:20 -13.13939 -65.94350 35967 ft 445 kts 328°
2026-05-05 01:20 -13.08602 -65.97582 35968 ft 445 kts 328°
2026-05-05 01:21 -13.03264 -66.00807 35969 ft 445 kts 328°
2026-05-05 01:21 -12.97935 -66.04042 35968 ft 445 kts 328°
2026-05-05 01:22 -12.92609 -66.07276 35966 ft 445 kts 328°
2026-05-05 01:22 -12.87270 -66.10504 35966 ft 445 kts 328°
2026-05-05 01:23 -12.81927 -66.13726 35966 ft 445 kts 328°
2026-05-05 01:23 -12.76590 -66.16943 35969 ft 445 kts 328°
2026-05-05 01:24 -12.71252 -66.20167 35968 ft 445 kts 328°
2026-05-05 01:24 -12.65905 -66.23396 35960 ft 446 kts 328°
2026-05-05 01:25 -12.60558 -66.26628 35959 ft 446 kts 328°
2026-05-05 01:25 -12.55204 -66.29854 35962 ft 446 kts 328°
2026-05-05 01:26 -12.49853 -66.33081 35967 ft 446 kts 328°
2026-05-05 01:26 -12.44534 -66.36293 35968 ft 446 kts 328°
2026-05-05 01:27 -12.39178 -66.39519 35968 ft 447 kts 328°
2026-05-05 01:27 -12.33813 -66.42742 35968 ft 447 kts 328°
2026-05-05 01:28 -12.28453 -66.45960 35968 ft 447 kts 328°
2026-05-05 01:28 -12.23099 -66.49176 35972 ft 446 kts 328°
2026-05-05 01:29 -12.17748 -66.52396 35968 ft 447 kts 328°
2026-05-05 01:29 -12.12388 -66.55618 35972 ft 447 kts 328°
2026-05-05 01:30 -12.07030 -66.58838 35977 ft 447 kts 329°
2026-05-05 01:30 -12.01674 -66.62051 35986 ft 446 kts 329°
2026-05-05 01:31 -11.96323 -66.65260 35982 ft 446 kts 329°
2026-05-05 01:31 -11.90982 -66.68470 35981 ft 445 kts 329°
2026-05-05 01:32 -11.85637 -66.71671 35979 ft 445 kts 329°
2026-05-05 01:32 -11.80299 -66.74861 35975 ft 444 kts 329°
2026-05-05 01:33 -11.74970 -66.78058 35972 ft 444 kts 329°
2026-05-05 01:33 -11.69634 -66.81252 35967 ft 444 kts 329°
2026-05-05 01:34 -11.64297 -66.84437 35967 ft 444 kts 329°
2026-05-05 01:34 -11.58990 -66.87602 35967 ft 444 kts 329°
2026-05-05 01:35 -11.53658 -66.90799 35973 ft 445 kts 329°
2026-05-05 01:35 -11.48321 -66.93996 35979 ft 444 kts 329°
2026-05-05 01:36 -11.42978 -66.97183 35986 ft 444 kts 329°
2026-05-05 01:36 -11.37648 -67.00365 35997 ft 444 kts 329°
2026-05-05 01:37 -11.32311 -67.03543 35995 ft 444 kts 329°
2026-05-05 01:37 -11.26980 -67.06709 35996 ft 443 kts 329°
2026-05-05 01:38 -11.21652 -67.09886 35994 ft 443 kts 329°
2026-05-05 01:38 -11.16338 -67.13058 35993 ft 443 kts 329°
2026-05-05 01:39 -11.11016 -67.16229 35997 ft 443 kts 329°
2026-05-05 01:39 -11.05694 -67.19399 35979 ft 444 kts 329°
2026-05-05 01:40 -11.00359 -67.22574 35973 ft 445 kts 329°
2026-05-05 01:40 -10.95010 -67.25755 35974 ft 445 kts 329°
2026-05-05 01:41 -10.89653 -67.28933 35975 ft 446 kts 329°
2026-05-05 01:41 -10.84289 -67.32121 35983 ft 446 kts 329°
2026-05-05 01:42 -10.78958 -67.35292 35988 ft 447 kts 329°
2026-05-05 01:42 -10.73590 -67.38476 35991 ft 447 kts 329°
2026-05-05 01:43 -10.68213 -67.41668 35997 ft 447 kts 329°
2026-05-05 01:43 -10.62846 -67.44857 35999 ft 447 kts 329°
2026-05-05 01:44 -10.58347 -67.47530 36000 ft 447 kts 329°
2026-05-05 01:44 -10.52978 -67.50713 36005 ft 447 kts 330°
2026-05-05 01:45 -10.47610 -67.53891 36009 ft 446 kts 329°
2026-05-05 01:45 -10.42311 -67.57112 36005 ft 446 kts 329°
2026-05-05 01:46 -10.37007 -67.60390 36003 ft 446 kts 329°
2026-05-05 01:46 -10.31694 -67.63656 36001 ft 446 kts 329°
2026-05-05 01:47 -10.26370 -67.66899 35996 ft 446 kts 329°
2026-05-05 01:47 -10.21048 -67.70139 35996 ft 446 kts 329°
2026-05-05 01:48 -10.15727 -67.73382 35996 ft 446 kts 329°
2026-05-05 01:48 -10.10417 -67.76628 36002 ft 445 kts 329°
2026-05-05 01:49 -10.05115 -67.79861 36001 ft 444 kts 329°
2026-05-05 01:49 -9.99819 -67.83085 35994 ft 444 kts 329°
2026-05-05 01:50 -9.94528 -67.86306 35987 ft 443 kts 329°
2026-05-05 01:50 -9.89240 -67.89517 35984 ft 443 kts 332°
2026-05-05 01:51 -9.83498 -67.91720 36013 ft 443 kts 344°
2026-05-05 01:51 -9.77562 -67.93390 36017 ft 443 kts 344°
2026-05-05 01:52 -9.71631 -67.95054 36019 ft 442 kts 344°
2026-05-05 01:52 -9.65698 -67.96731 36022 ft 442 kts 344°
2026-05-05 01:53 -9.59772 -67.98409 36024 ft 442 kts 344°
2026-05-05 01:53 -9.53848 -68.00079 36022 ft 441 kts 344°
2026-05-05 01:54 -9.47914 -68.01755 36019 ft 441 kts 344°
2026-05-05 01:54 -9.42003 -68.03426 36017 ft 441 kts 344°
2026-05-05 01:55 -9.36084 -68.05092 36019 ft 441 kts 344°
2026-05-05 01:55 -9.30172 -68.06761 36018 ft 441 kts 344°
2026-05-05 01:56 -9.24259 -68.08433 36019 ft 441 kts 344°
2026-05-05 01:56 -9.18359 -68.10135 36018 ft 441 kts 343°
2026-05-05 01:57 -9.12519 -68.11900 36015 ft 441 kts 343°
2026-05-05 01:57 -9.06628 -68.13689 36002 ft 442 kts 343°
2026-05-05 01:58 -9.00734 -68.15464 35999 ft 442 kts 343°
2026-05-05 01:58 -8.94823 -68.17227 35999 ft 443 kts 343°
2026-05-05 01:59 -8.88894 -68.18996 36002 ft 443 kts 343°
2026-05-05 01:59 -8.82982 -68.20760 36004 ft 443 kts 343°
2026-05-05 02:00 -8.77071 -68.22530 36003 ft 443 kts 343°
2026-05-05 02:00 -8.71150 -68.24303 36007 ft 444 kts 344°
2026-05-05 02:01 -8.65228 -68.26073 36011 ft 444 kts 344°
2026-05-05 02:01 -8.59294 -68.27845 36012 ft 445 kts 344°
2026-05-05 02:02 -8.53362 -68.29616 36015 ft 445 kts 344°
2026-05-05 02:02 -8.47422 -68.31389 36017 ft 445 kts 344°
2026-05-05 02:03 -8.41486 -68.33158 36020 ft 445 kts 344°
2026-05-05 02:03 -8.35531 -68.34930 36020 ft 445 kts 344°
2026-05-05 02:04 -8.29591 -68.36699 36020 ft 445 kts 344°
2026-05-05 02:04 -8.23646 -68.38471 36020 ft 445 kts 344°
2026-05-05 02:05 -8.17709 -68.40249 36022 ft 445 kts 344°
2026-05-05 02:05 -8.11764 -68.42021 36021 ft 445 kts 344°
2026-05-05 02:06 -8.05855 -68.43781 36019 ft 445 kts 344°
2026-05-05 02:06 -7.99913 -68.45545 36022 ft 446 kts 344°
2026-05-05 02:07 -7.93957 -68.47310 36026 ft 446 kts 344°
2026-05-05 02:07 -7.87994 -68.49082 36028 ft 446 kts 344°
2026-05-05 02:08 -7.82040 -68.50866 36029 ft 446 kts 344°
2026-05-05 02:08 -7.76084 -68.52643 36030 ft 446 kts 345°
2026-05-05 02:09 -7.70119 -68.54410 36027 ft 447 kts 344°
2026-05-05 02:09 -7.64155 -68.56176 36025 ft 447 kts 344°
2026-05-05 02:10 -7.58182 -68.57946 36025 ft 447 kts 344°
2026-05-05 02:10 -7.52209 -68.59706 36027 ft 447 kts 344°
2026-05-05 02:11 -7.46227 -68.61473 36030 ft 448 kts 344°
2026-05-05 02:11 -7.40251 -68.63242 36032 ft 448 kts 344°
2026-05-05 02:12 -7.31275 -68.65902 36036 ft 448 kts 344°
2026-05-05 02:13 -7.25289 -68.67680 36036 ft 448 kts 344°
2026-05-05 02:13 -7.19300 -68.69450 36037 ft 448 kts 345°
2026-05-05 02:14 -7.13316 -68.71205 36041 ft 448 kts 345°
2026-05-05 02:14 -7.07331 -68.72966 36039 ft 448 kts 345°
2026-05-05 02:15 -7.01392 -68.74724 36038 ft 448 kts 344°
2026-05-05 02:15 -6.95373 -68.76515 36037 ft 448 kts 344°
2026-05-05 02:16 -6.89424 -68.78265 36039 ft 448 kts 345°
2026-05-05 02:16 -6.83431 -68.80029 36039 ft 448 kts 344°
2026-05-05 02:17 -6.77443 -68.81797 36038 ft 448 kts 345°
2026-05-05 02:17 -6.71456 -68.83558 36032 ft 448 kts 345°
2026-05-05 02:18 -6.65467 -68.85319 36037 ft 448 kts 345°
2026-05-05 02:18 -6.59475 -68.87080 36043 ft 448 kts 345°
2026-05-05 02:19 -6.53483 -68.88836 36042 ft 448 kts 345°
2026-05-05 02:19 -6.47497 -68.90612 36042 ft 448 kts 345°
2026-05-05 02:20 -6.41513 -68.92389 36040 ft 448 kts 345°
2026-05-05 02:20 -6.35524 -68.94161 36042 ft 449 kts 345°
2026-05-05 02:21 -6.29537 -68.95930 36044 ft 449 kts 345°
2026-05-05 02:21 -6.23544 -68.97706 36044 ft 449 kts 345°
2026-05-05 02:22 -6.17541 -68.99480 36043 ft 449 kts 345°
2026-05-05 02:22 -6.11553 -69.01259 36044 ft 449 kts 345°
2026-05-05 02:23 -6.05557 -69.03027 36047 ft 449 kts 345°
2026-05-05 02:23 -6.00576 -69.04500 36046 ft 449 kts 345°
2026-05-05 02:24 -5.94574 -69.06274 36047 ft 449 kts 345°
2026-05-05 02:24 -5.88577 -69.08048 36047 ft 449 kts 345°
2026-05-05 02:25 -5.82576 -69.09816 36048 ft 449 kts 345°
2026-05-05 02:25 -5.76575 -69.11588 36048 ft 449 kts 345°
2026-05-05 02:26 -5.70572 -69.13364 36048 ft 449 kts 345°
2026-05-05 02:26 -5.64574 -69.15141 36048 ft 449 kts 345°
2026-05-05 02:27 -5.58600 -69.16901 36048 ft 449 kts 345°
2026-05-05 02:27 -5.52603 -69.18670 36048 ft 449 kts 345°
2026-05-05 02:28 -5.46604 -69.20442 36048 ft 449 kts 345°
2026-05-05 02:28 -5.40606 -69.22212 36047 ft 449 kts 345°
2026-05-05 02:29 -5.34613 -69.23983 36045 ft 449 kts 345°
2026-05-05 02:29 -5.28616 -69.25744 36044 ft 449 kts 345°
2026-05-05 02:30 -5.22617 -69.27502 36042 ft 449 kts 345°
2026-05-05 02:30 -5.16614 -69.29270 36043 ft 449 kts 345°
2026-05-05 02:31 -5.10624 -69.31049 36043 ft 449 kts 345°
2026-05-05 02:31 -5.04626 -69.32824 36042 ft 449 kts 345°
2026-05-05 02:32 -4.98626 -69.34583 36042 ft 449 kts 345°
2026-05-05 02:32 -4.92626 -69.36348 36045 ft 449 kts 345°
2026-05-05 02:33 -4.86631 -69.38110 36045 ft 448 kts 345°
2026-05-05 02:33 -4.80683 -69.39859 36045 ft 448 kts 345°
2026-05-05 02:34 -4.74683 -69.41626 36044 ft 448 kts 345°
2026-05-05 02:34 -4.68700 -69.43393 36043 ft 448 kts 345°
2026-05-05 02:35 -4.62728 -69.45180 36044 ft 448 kts 344°
2026-05-05 02:35 -4.56759 -69.46974 36046 ft 447 kts 344°
2026-05-05 02:36 -4.50798 -69.48766 36045 ft 447 kts 344°
2026-05-05 02:36 -4.44840 -69.50551 36043 ft 447 kts 345°
2026-05-05 02:37 -4.38925 -69.52323 36042 ft 447 kts 344°
2026-05-05 02:37 -4.32970 -69.54109 36043 ft 446 kts 345°
2026-05-05 02:38 -4.27021 -69.55894 36043 ft 446 kts 345°
2026-05-05 02:38 -4.21078 -69.57674 36044 ft 445 kts 345°
2026-05-05 02:39 -4.15146 -69.59447 36040 ft 445 kts 345°
2026-05-05 02:39 -4.09214 -69.61227 36040 ft 445 kts 345°
2026-05-05 02:40 -4.03278 -69.63003 36043 ft 444 kts 345°
2026-05-05 02:40 -3.97357 -69.64777 36042 ft 444 kts 345°
2026-05-05 02:41 -3.91435 -69.66558 36042 ft 444 kts 345°
2026-05-05 02:41 -3.85514 -69.68332 36044 ft 444 kts 345°
2026-05-05 02:42 -3.79588 -69.70107 36044 ft 444 kts 345°
2026-05-05 02:42 -3.73655 -69.71879 36045 ft 445 kts 345°
2026-05-05 02:43 -3.67716 -69.73654 36048 ft 445 kts 345°
2026-05-05 02:43 -3.61779 -69.75432 36048 ft 445 kts 345°
2026-05-05 02:44 -3.55852 -69.77208 36045 ft 445 kts 345°
2026-05-05 02:44 -3.49942 -69.78976 36043 ft 446 kts 345°
2026-05-05 02:45 -3.43984 -69.80754 36045 ft 446 kts 345°
2026-05-05 02:45 -3.38024 -69.82506 36046 ft 446 kts 345°
2026-05-05 02:46 -3.32059 -69.84245 36045 ft 446 kts 345°
2026-05-05 02:46 -3.26098 -69.85995 36043 ft 446 kts 345°
2026-05-05 02:47 -3.20138 -69.87755 36042 ft 446 kts 345°
2026-05-05 02:47 -3.14169 -69.89510 36042 ft 446 kts 345°
2026-05-05 02:48 -3.08213 -69.91261 36039 ft 446 kts 345°
2026-05-05 02:48 -3.02248 -69.93013 36038 ft 446 kts 345°
2026-05-05 02:49 -2.96289 -69.94760 36035 ft 446 kts 345°
2026-05-05 02:49 -2.90326 -69.96507 36035 ft 446 kts 345°
2026-05-05 02:50 -2.84397 -69.98253 36034 ft 446 kts 345°
2026-05-05 02:50 -2.78440 -70.00009 36036 ft 446 kts 345°
2026-05-05 02:51 -2.72467 -70.01769 36035 ft 446 kts 344°
2026-05-05 02:51 -2.66757 -70.04235 36036 ft 448 kts 336°
2026-05-05 02:52 -2.61126 -70.06904 36045 ft 448 kts 336°
2026-05-05 02:52 -2.55486 -70.09575 36044 ft 448 kts 336°
2026-05-05 02:53 -2.49849 -70.12241 36043 ft 448 kts 336°
2026-05-05 02:53 -2.44212 -70.14902 36043 ft 448 kts 336°
2026-05-05 02:54 -2.38576 -70.17577 36044 ft 448 kts 336°
2026-05-05 02:54 -2.32938 -70.20248 36046 ft 448 kts 336°
2026-05-05 02:55 -2.27334 -70.22902 36051 ft 448 kts 336°
2026-05-05 02:55 -2.21703 -70.25568 36052 ft 448 kts 336°
2026-05-05 02:56 -2.16069 -70.28231 36052 ft 448 kts 336°
2026-05-05 02:56 -2.10435 -70.30896 36044 ft 448 kts 336°
2026-05-05 02:57 -2.04801 -70.33560 36044 ft 448 kts 336°
2026-05-05 02:57 -1.99171 -70.36226 36050 ft 448 kts 336°
2026-05-05 02:58 -1.93543 -70.38894 36050 ft 448 kts 336°
2026-05-05 02:58 -1.87909 -70.41557 36051 ft 448 kts 336°
2026-05-05 02:59 -1.82280 -70.44219 36052 ft 448 kts 336°
2026-05-05 02:59 -1.76645 -70.46884 36051 ft 448 kts 336°
2026-05-05 03:00 -1.71014 -70.49547 36051 ft 448 kts 336°
2026-05-05 03:00 -1.65380 -70.52212 36052 ft 448 kts 336°
2026-05-05 03:01 -1.59745 -70.54875 36054 ft 448 kts 336°
2026-05-05 03:01 -1.54114 -70.57535 36053 ft 448 kts 336°
2026-05-05 03:02 -1.48485 -70.60200 36052 ft 447 kts 336°
2026-05-05 03:02 -1.42888 -70.62845 36051 ft 447 kts 336°
2026-05-05 03:03 -1.37258 -70.65506 36049 ft 447 kts 336°
2026-05-05 03:03 -1.31632 -70.68165 36048 ft 447 kts 336°
2026-05-05 03:04 -1.26005 -70.70826 36047 ft 447 kts 336°
2026-05-05 03:04 -1.20374 -70.73483 36047 ft 447 kts 336°
2026-05-05 03:05 -1.14747 -70.76146 36048 ft 447 kts 336°
2026-05-05 03:05 -1.09122 -70.78810 36047 ft 447 kts 336°
2026-05-05 03:06 -1.03488 -70.81471 36044 ft 447 kts 336°
2026-05-05 03:06 -0.98772 -70.83695 36044 ft 447 kts 336°
2026-05-05 03:07 -0.93139 -70.86357 36043 ft 448 kts 336°
2026-05-05 03:07 -0.87513 -70.89024 36044 ft 448 kts 336°
2026-05-05 03:08 -0.81908 -70.91669 36038 ft 448 kts 336°
2026-05-05 03:08 -0.76260 -70.94329 36037 ft 448 kts 336°
2026-05-05 03:09 -0.70612 -70.96998 36039 ft 449 kts 336°
2026-05-05 03:09 -0.64969 -70.99670 36044 ft 448 kts 336°
2026-05-05 03:10 -0.59330 -71.02332 36048 ft 448 kts 336°
2026-05-05 03:10 -0.53688 -71.04998 36048 ft 448 kts 336°
2026-05-05 03:11 -0.48054 -71.07655 36046 ft 448 kts 336°
2026-05-05 03:11 -0.42420 -71.10319 36042 ft 448 kts 336°
2026-05-05 03:12 -0.36789 -71.12983 36045 ft 448 kts 336°
2026-05-05 03:12 -0.31160 -71.15645 36046 ft 448 kts 336°
2026-05-05 03:13 -0.25533 -71.18302 36044 ft 448 kts 336°
2026-05-05 03:13 -0.19894 -71.20968 36043 ft 447 kts 336°
2026-05-05 03:14 -0.14268 -71.23627 36041 ft 447 kts 336°
2026-05-05 03:14 -0.08638 -71.26287 36041 ft 447 kts 336°
2026-05-05 03:15 -0.03009 -71.28945 36040 ft 447 kts 336°
2026-05-05 03:15 0.02622 -71.31604 36033 ft 448 kts 336°
2026-05-05 03:16 0.08223 -71.34254 36029 ft 448 kts 336°
2026-05-05 03:16 0.13870 -71.36923 36028 ft 449 kts 336°
2026-05-05 03:17 0.19518 -71.39593 36029 ft 449 kts 336°
2026-05-05 03:17 0.25163 -71.42264 36030 ft 449 kts 336°
2026-05-05 03:18 0.30817 -71.44928 36033 ft 449 kts 336°
2026-05-05 03:18 0.36472 -71.47603 36033 ft 449 kts 336°
2026-05-05 03:19 0.44940 -71.51610 36040 ft 449 kts 336°
2026-05-05 03:19 0.50583 -71.54277 36041 ft 449 kts 336°
2026-05-05 03:20 0.56229 -71.56946 36040 ft 448 kts 336°
2026-05-05 03:20 0.61869 -71.59607 36039 ft 448 kts 336°
2026-05-05 03:21 0.67518 -71.62270 36038 ft 448 kts 336°
2026-05-05 03:21 0.73154 -71.64936 36037 ft 448 kts 336°
2026-05-05 03:22 0.78799 -71.67610 36028 ft 449 kts 336°
2026-05-05 03:22 0.84452 -71.70282 36026 ft 449 kts 336°
2026-05-05 03:23 0.90103 -71.72951 36030 ft 450 kts 336°
2026-05-05 03:23 0.95760 -71.75622 36031 ft 450 kts 336°
2026-05-05 03:24 1.01383 -71.78283 36029 ft 450 kts 336°
2026-05-05 03:24 1.07043 -71.80957 36033 ft 450 kts 336°
2026-05-05 03:25 1.12741 -71.83658 36029 ft 451 kts 336°
2026-05-05 03:25 1.18381 -71.86333 36024 ft 451 kts 336°
2026-05-05 03:26 1.24074 -71.89020 36026 ft 452 kts 336°
2026-05-05 03:26 1.29767 -71.91711 36018 ft 452 kts 336°
2026-05-05 03:27 1.35459 -71.94420 36022 ft 454 kts 333°
2026-05-05 03:27 1.40920 -71.97617 36017 ft 455 kts 331°
2026-05-05 03:28 1.46383 -72.00832 36027 ft 455 kts 331°
2026-05-05 03:28 1.51855 -72.04053 36030 ft 456 kts 331°
2026-05-05 03:29 1.57311 -72.07278 36028 ft 456 kts 331°
2026-05-05 03:29 1.62745 -72.10491 36031 ft 456 kts 331°
2026-05-05 03:30 1.68210 -72.13722 36030 ft 456 kts 331°
2026-05-05 03:30 1.73680 -72.16948 36030 ft 456 kts 331°
2026-05-05 03:31 1.79146 -72.20172 36031 ft 456 kts 331°
2026-05-05 03:31 1.84618 -72.23402 36031 ft 456 kts 331°
2026-05-05 03:32 1.90080 -72.26632 36032 ft 456 kts 331°
2026-05-05 03:32 1.95535 -72.29863 36034 ft 456 kts 331°
2026-05-05 03:33 2.01006 -72.33095 36036 ft 456 kts 331°
2026-05-05 03:33 2.06466 -72.36318 36033 ft 456 kts 331°
2026-05-05 03:34 2.11925 -72.39542 36033 ft 455 kts 331°
2026-05-05 03:34 2.17382 -72.42763 36032 ft 455 kts 331°
2026-05-05 03:35 2.22841 -72.45984 36028 ft 456 kts 331°
2026-05-05 03:35 2.28299 -72.49206 36025 ft 456 kts 331°
2026-05-05 03:36 2.33757 -72.52434 36020 ft 456 kts 331°
2026-05-05 03:36 2.39184 -72.55643 36022 ft 456 kts 331°
2026-05-05 03:37 2.44643 -72.58874 36021 ft 456 kts 331°
2026-05-05 03:37 2.50104 -72.62106 36019 ft 456 kts 331°
2026-05-05 03:38 2.55607 -72.65255 36018 ft 455 kts 334°
2026-05-05 03:38 2.61295 -72.68026 36024 ft 454 kts 337°
2026-05-05 03:39 2.67041 -72.70652 36030 ft 454 kts 336°
2026-05-05 03:39 2.72753 -72.73346 36037 ft 454 kts 336°
2026-05-05 03:40 2.78433 -72.76105 36049 ft 454 kts 335°
2026-05-05 03:40 2.84104 -72.78876 36069 ft 454 kts 335°
2026-05-05 03:41 2.89788 -72.81637 36081 ft 454 kts 335°
2026-05-05 03:41 2.95480 -72.84385 36092 ft 453 kts 335°
2026-05-05 03:42 3.01124 -72.87105 36091 ft 453 kts 335°
2026-05-05 03:42 3.06792 -72.89848 36102 ft 452 kts 335°
2026-05-05 03:43 3.12454 -72.92589 36100 ft 452 kts 335°
2026-05-05 03:43 3.18124 -72.95330 36110 ft 452 kts 335°
2026-05-05 03:44 3.23788 -72.98072 36114 ft 452 kts 335°
2026-05-05 03:44 3.29453 -73.00809 36113 ft 452 kts 335°
2026-05-05 03:45 3.35120 -73.03553 36113 ft 452 kts 335°
2026-05-05 03:45 3.40786 -73.06294 36119 ft 452 kts 335°
2026-05-05 03:46 3.45499 -73.08573 36119 ft 452 kts 335°
2026-05-05 03:46 3.52119 -73.11780 36129 ft 452 kts 335°
2026-05-05 03:47 3.56831 -73.14070 36125 ft 452 kts 335°
2026-05-05 03:47 3.62497 -73.16814 36126 ft 452 kts 335°
2026-05-05 03:48 3.68164 -73.19557 36126 ft 452 kts 335°
2026-05-05 03:48 3.73832 -73.22300 36133 ft 453 kts 335°
2026-05-05 03:49 3.79502 -73.25043 36151 ft 453 kts 335°
2026-05-05 03:49 3.85176 -73.27791 36162 ft 453 kts 335°
2026-05-05 03:50 3.90848 -73.30542 36155 ft 453 kts 335°
2026-05-05 03:50 3.96528 -73.33297 36164 ft 453 kts 335°
2026-05-05 03:51 4.02193 -73.36054 36137 ft 453 kts 333°
2026-05-05 03:51 4.07199 -73.39869 36128 ft 455 kts 313°
2026-05-05 03:52 4.10812 -73.45075 36098 ft 456 kts 302°
2026-05-05 03:52 4.12460 -73.47811 35915 ft 462 kts 302°
2026-05-05 03:52 4.14123 -73.50570 35662 ft 464 kts 302°
2026-05-05 03:53 4.15793 -73.53337 35413 ft 463 kts 302°
2026-05-05 03:53 4.17466 -73.56102 35180 ft 462 kts 302°
2026-05-05 03:53 4.19126 -73.58845 34948 ft 460 kts 302°
2026-05-05 03:53 4.20783 -73.61584 34714 ft 459 kts 302°
2026-05-05 03:54 4.24220 -73.66872 34235 ft 453 kts 311°
2026-05-05 03:54 4.26410 -73.69124 33681 ft 450 kts 319°
2026-05-05 03:54 4.28717 -73.71232 33144 ft 447 kts 319°
2026-05-05 03:55 4.31004 -73.73330 32590 ft 445 kts 318°
2026-05-05 03:55 4.33277 -73.75425 32045 ft 443 kts 318°
2026-05-05 03:55 4.35536 -73.77516 31516 ft 441 kts 318°
2026-05-05 03:55 4.37783 -73.79604 31023 ft 439 kts 318°
2026-05-05 03:56 4.40017 -73.81678 30519 ft 437 kts 318°
2026-05-05 03:56 4.42243 -73.83739 29950 ft 434 kts 318°
2026-05-05 03:56 4.44451 -73.85779 29453 ft 430 kts 318°
2026-05-05 03:56 4.46640 -73.87802 28960 ft 425 kts 319°
2026-05-05 03:57 4.48804 -73.89801 28481 ft 420 kts 319°
2026-05-05 03:57 4.50944 -73.91777 28026 ft 416 kts 319°
2026-05-05 03:57 4.53057 -73.93732 27557 ft 412 kts 319°
2026-05-05 03:57 4.55156 -73.95674 27114 ft 408 kts 319°
2026-05-05 03:58 4.57239 -73.97602 26668 ft 405 kts 319°
2026-05-05 03:58 4.59297 -73.99507 26222 ft 401 kts 320°
2026-05-05 03:58 4.61478 -74.01215 25755 ft 395 kts 330°
2026-05-05 03:58 4.63809 -74.02657 25290 ft 393 kts 330°
2026-05-05 03:59 4.66139 -74.04091 24814 ft 391 kts 330°
2026-05-05 03:59 4.68447 -74.05514 24338 ft 389 kts 330°
2026-05-05 03:59 4.70758 -74.06940 23837 ft 389 kts 331°
2026-05-05 03:59 4.73055 -74.08361 23312 ft 387 kts 330°
2026-05-05 04:00 4.75335 -74.09773 22856 ft 384 kts 331°
2026-05-05 04:00 4.77598 -74.11177 22370 ft 382 kts 331°
2026-05-05 04:00 4.79847 -74.12574 21906 ft 380 kts 331°
2026-05-05 04:00 4.82087 -74.13963 21439 ft 377 kts 331°
2026-05-05 04:01 4.84322 -74.15330 20989 ft 375 kts 331°
2026-05-05 04:01 4.86545 -74.16692 20552 ft 373 kts 331°
2026-05-05 04:01 4.88748 -74.18057 20085 ft 372 kts 331°
2026-05-05 04:01 4.90911 -74.19403 19773 ft 366 kts 330°
2026-05-05 04:02 4.93034 -74.20732 19447 ft 353 kts 330°
2026-05-05 04:02 4.95055 -74.22107 18797 ft 350 kts 322°
2026-05-05 04:02 4.96745 -74.23870 18183 ft 354 kts 308°
2026-05-05 04:02 4.98014 -74.25974 17802 ft 352 kts 299°
2026-05-05 04:03 4.99143 -74.28149 17382 ft 350 kts 299°
2026-05-05 04:03 5.00267 -74.30309 16935 ft 346 kts 299°
2026-05-05 04:03 5.01214 -74.32525 16257 ft 345 kts 283°
2026-05-05 04:03 5.01320 -74.34906 15653 ft 341 kts 259°
2026-05-05 04:04 5.00520 -74.37106 15045 ft 333 kts 235°
2026-05-05 04:04 4.99025 -74.38768 14855 ft 313 kts 214°
2026-05-05 04:04 4.97160 -74.39778 14471 ft 300 kts 195°
2026-05-05 04:04 4.95176 -74.40399 13996 ft 297 kts 193°
2026-05-05 04:05 4.93162 -74.40705 13324 ft 293 kts 174°
2026-05-05 04:05 4.91226 -74.40248 12956 ft 277 kts 153°
2026-05-05 04:05 4.89673 -74.39249 12856 ft 254 kts 135°
2026-05-05 04:05 4.88555 -74.37949 12873 ft 243 kts 126°
2026-05-05 04:06 4.87564 -74.36642 12886 ft 227 kts 126°
2026-05-05 04:06 4.86619 -74.35396 12933 ft 223 kts 126°
2026-05-05 04:06 4.85675 -74.34157 12790 ft 224 kts 126°
2026-05-05 04:06 4.84739 -74.32924 12533 ft 221 kts 126°
2026-05-05 04:07 4.83809 -74.31694 12280 ft 221 kts 126°
2026-05-05 04:07 4.82885 -74.30472 12005 ft 223 kts 126°
2026-05-05 04:07 4.81945 -74.29228 11730 ft 225 kts 126°
2026-05-05 04:07 4.80998 -74.27977 11466 ft 226 kts 126°
2026-05-05 04:08 4.80049 -74.26723 11195 ft 223 kts 126°
2026-05-05 04:08 4.79126 -74.25503 10921 ft 216 kts 126°
2026-05-05 04:08 4.78231 -74.24319 10662 ft 210 kts 126°
2026-05-05 04:08 4.77358 -74.23165 10416 ft 204 kts 126°
2026-05-05 04:09 4.76525 -74.22064 10159 ft 192 kts 127°
2026-05-05 04:09 4.75748 -74.21037 9913 ft 178 kts 126°
2026-05-05 04:09 4.75029 -74.20086 9682 ft 163 kts 127°
2026-05-05 04:09 4.74361 -74.19203 9460 ft 158 kts 126°
2026-05-05 04:10 4.73702 -74.18332 9218 ft 155 kts 126°
2026-05-05 04:10 4.73052 -74.17473 8996 ft 153 kts 126°
2026-05-05 04:10 4.72415 -74.16631 8781 ft 150 kts 126°
2026-05-05 04:10 4.71790 -74.15799 8557 ft 148 kts 126°
2026-05-05 04:11 4.71167 -74.14973 8370 ft 148 kts 125°
2026-05-05 04:11 4.70628 -74.14262 8367 ft 103 kts 127°
2026-05-05 04:11 4.70293 -74.13821 8364 ft 56 kts 127°
2026-05-05 04:11 4.70067 -74.13641 8366 ft 39 kts 156°
2026-05-05 04:12 4.69962 -74.13597 8366 ft 4 kts 157°
2026-05-05 04:12 4.69960 -74.13596 8366 ft 0 kts 157°
2026-05-05 04:12 4.69923 -74.13589 8366 ft 11 kts 188°
2026-05-05 04:13 4.69878 -74.13669 8366 ft 12 kts 261°
2026-05-05 04:13 4.69849 -74.13739 8366 ft 10 kts 226°
2026-05-05 04:13 4.69823 -74.13790 8366 ft 7 kts 224°
2026-05-05 04:13 4.69790 -74.13813 8366 ft 5 kts 218°
2026-05-05 04:14 4.69773 -74.13827 8366 ft 0 kts 218°
2026-05-05 04:14 4.69767 -74.13831 8366 ft 0 kts 218°